Weather History for Moline, IL

Change the Weather History Date:

Thursday, January 16, 2014

  Actual Average Record
Temperature  
Mean Temperature 25 °F 22 °F  
Max Temperature 39 °F 31 °F 59 °F (1990)
Min Temperature 11 °F 14 °F -27 °F (2009)
Degree Days  
Heating Degree Days 40 43  
Month to date heating degree days 774 677  
Since 1 July heating degree days 3490 3098  
Cooling Degree Days 0 0  
Month to date cooling degree days 0 0  
Year to date cooling degree days 0 0  
Moisture  
Dew Point 18 °F    
Average Humidity 66    
Maximum Humidity 76    
Minimum Humidity 55    
Precipitation  
Precipitation T in 0.05 in 0.72 in (1969)
Month to date precipitation 0.83 0.81  
Year to date precipitation 0.83 0.81  
Snow  
Snow T in 0.30 in - ()
Month to date snowfall 11.4 4.9  
Since 1 July snowfall 26.2 15.4  
Snow Depth T in    
Sea Level Pressure  
Sea Level Pressure 29.66 in    
Wind  
Wind Speed 15 mph (West)    
Max Wind Speed 33 mph    
Max Gust Speed 43 mph    
Visibility 10 miles    
Events Snow    
T = Trace of Precipitation, MM = Missing Value Source: NWS Daily Summary

Daily Weather History Graph

Daily Weather History Graph

Search for Another Location

Airport:

Trip Planner

Search our weather history database for the weather conditions in past years. The results will help you decide how hot, cold, wet, or windy it might be!

Date:

Astronomy

Jan. 16, 2014 Rise Set
Actual Time 7:25 AM CST 4:58 PM CST
Civil Twilight 6:55 AM CST 5:28 PM CST
Nautical Twilight 6:20 AM CST 6:03 PM CST
Astronomical Twilight 5:47 AM CST 6:36 PM CST
Moon 5:51 PM CST (1/16) 7:18 AM CST (1/16)
Length of Visible Light 10h 33m
Length of Day
9h 33m
Full, 100% of the Moon is Illuminated
Jan 16
Full
Jan 23
Last Quarter
Jan 30
New
Feb 6
First Quarter
Feb 14
Full

Hourly Weather History & Observations

Time (CST) Temp. Windchill Dew Point Humidity Pressure Visibility Wind Dir Wind Speed Gust Speed Precip Events Conditions
12:52 AM 26.1 °F 13.1 °F 14.0 °F 60% 29.72 in 10.0 mi SSW 17.3 mph 26.5 mph N/A   Mostly Cloudy
1:52 AM 26.1 °F 14.0 °F 18.0 °F 71% 29.72 in 10.0 mi SSW 15.0 mph 26.5 mph N/A   Mostly Cloudy
2:52 AM 26.1 °F 15.6 °F 19.0 °F 75% 29.68 in 10.0 mi SSW 11.5 mph 23.0 mph N/A   Scattered Clouds
3:52 AM 26.1 °F 15.6 °F 19.9 °F 78% 29.66 in 10.0 mi SW 11.5 mph 17.3 mph N/A   Clear
4:52 AM 28.0 °F 17.5 °F 21.9 °F 78% 29.62 in 10.0 mi SSW 12.7 mph - N/A   Overcast
5:52 AM 28.0 °F 18.6 °F 21.9 °F 78% 29.60 in 10.0 mi SW 10.4 mph - N/A   Overcast
6:52 AM 28.9 °F 19.8 °F 21.9 °F 75% 29.58 in 10.0 mi SW 10.4 mph - N/A   Mostly Cloudy
7:52 AM 30.0 °F 21.7 °F 23.0 °F 75% 29.59 in 10.0 mi SW 9.2 mph - N/A   Overcast
8:52 AM 32.0 °F 24.2 °F 24.1 °F 73% 29.58 in 10.0 mi SW 9.2 mph - N/A   Overcast
9:52 AM 35.1 °F 27.9 °F 25.0 °F 67% 29.57 in 10.0 mi SW 9.2 mph - N/A   Overcast
10:52 AM 37.0 °F 27.0 °F 30.0 °F 76% 29.57 in 10.0 mi West 18.4 mph 24.2 mph N/A   Overcast
11:26 AM 35.6 °F 26.6 °F 32.0 °F 87% 29.54 in 10.0 mi West 13.8 mph - 0.00 in   Overcast
11:34 AM 35.6 °F 27.1 °F 32.0 °F 87% 29.54 in 10.0 mi WSW 12.7 mph - 0.00 in   Overcast
11:52 AM 37.0 °F 28.9 °F 30.9 °F 79% 29.55 in 10.0 mi West 12.7 mph - 0.00 in   Overcast
12:11 PM 37.4 °F 26.9 °F 30.2 °F 75% 29.52 in 10.0 mi West 20.7 mph 27.6 mph N/A   Overcast
12:52 PM 34.0 °F 20.3 °F 26.1 °F 73% 29.56 in 10.0 mi NW 29.9 mph 42.6 mph 0.00 in   Overcast
1:02 PM 33.8 °F 20.3 °F 24.8 °F 70% 29.54 in 7.0 mi NW 28.8 mph 38.0 mph 0.00 in Snow Light Snow
1:09 PM 33.8 °F 21.0 °F 24.8 °F 70% 29.54 in 5.0 mi WNW 25.3 mph 38.0 mph 0.00 in Snow Light Snow
1:52 PM 33.1 °F 22.2 °F 27.0 °F 78% 29.58 in 6.0 mi WNW 17.3 mph 25.3 mph 0.00 in Snow Light Snow
2:18 PM 33.8 °F 19.9 °F 23.0 °F 65% 29.57 in 10.0 mi WNW 31.1 mph 40.3 mph 0.00 in   Overcast
2:52 PM 33.1 °F 21.9 °F 19.0 °F 56% 29.62 in 10.0 mi WNW 18.4 mph 31.1 mph 0.00 in   Mostly Cloudy
3:52 PM 30.9 °F 19.1 °F 19.0 °F 61% 29.65 in 10.0 mi NW 18.4 mph 25.3 mph N/A   Overcast
4:52 PM 28.9 °F 18.6 °F 17.1 °F 61% 29.68 in 10.0 mi NW 12.7 mph - N/A   Partly Cloudy
5:52 PM 28.9 °F 18.6 °F 17.1 °F 61% 29.69 in 10.0 mi NW 12.7 mph 20.7 mph N/A   Overcast
6:52 PM 26.1 °F 12.0 °F 12.0 °F 55% 29.70 in 10.0 mi NW 20.7 mph 25.3 mph N/A   Overcast
7:52 PM 21.0 °F 6.2 °F 10.0 °F 63% 29.75 in 10.0 mi NW 18.4 mph 26.5 mph N/A   Overcast
8:52 PM 16.0 °F 1.1 °F 7.0 °F 68% 29.80 in 10.0 mi NW 15.0 mph 28.8 mph 0.00 in Snow Light Snow
9:15 PM 15.8 °F -2.3 °F 5.0 °F 62% 29.79 in 8.0 mi NW 23.0 mph 28.8 mph 0.00 in Snow Light Snow
9:52 PM 12.9 °F -4.4 °F 3.9 °F 67% 29.84 in 10.0 mi WNW 18.4 mph 25.3 mph 0.00 in   Overcast
10:02 PM 12.2 °F -5.3 °F 3.2 °F 67% 29.81 in 10.0 mi NW 18.4 mph 31.1 mph N/A   Overcast
10:09 PM 12.2 °F -6.3 °F 1.4 °F 62% 29.81 in 10.0 mi NW 20.7 mph 29.9 mph N/A   Overcast
10:52 PM 12.0 °F -4.5 °F 1.9 °F 64% 29.85 in 10.0 mi WNW 16.1 mph 25.3 mph N/A   Overcast
11:52 PM 10.9 °F -5.9 °F 1.0 °F 64% 29.86 in 9.0 mi WNW 16.1 mph 26.5 mph N/A   Overcast